You are listening to:
KSCH Gnd/Twr - Schenectady, New York, United States

KSCH 161759Z 00000KT 15SM CLR 24/15 A3026

If stream doesn't start automatically press the play button
If stream stops then reload player then press play